Weather History for KRDR - October, 2012

Change the Weather History Date:

Wednesday, October 10, 2012

  Actual Average Record
Temperature  
Mean Temperature 34 °F -  
Max Temperature 45 °F 56 °F 77 °F (2004)
Min Temperature 25 °F 34 °F 21 °F (2014)
Degree Days  
Heating Degree Days 30    
Moisture  
Dew Point 33 °F    
Average Humidity 86    
Maximum Humidity 96    
Minimum Humidity 56    
Precipitation  
Precipitation 0.07 in - - ()
Sea Level Pressure  
Sea Level Pressure 29.97 in    
Wind  
Wind Speed 5 mph (NW)    
Max Wind Speed 9 mph    
Max Gust Speed 22 mph    
Visibility 10 miles    
Events Rain    
Averages and records for this station are not official NWS values.
T = Trace of Precipitation, MM = Missing Value Source: NWS Daily Summary

Daily Weather History Graph

Daily Weather History Graph

Search for Another Location

Airport or City:

Trip Planner

Search our weather history database for the weather conditions in past years. The results will help you decide how hot, cold, wet, or windy it might be!

Date:

Astronomy

Oct. 10, 2012 Rise Set
Actual Time 7:42 AM CDT 6:49 PM CDT
Civil Twilight 7:11 AM CDT 7:20 PM CDT
Nautical Twilight 6:35 AM CDT 7:56 PM CDT
Astronomical Twilight 5:59 AM CDT 8:32 PM CDT
Moon 1:57 AM CDT (10/10) 4:12 PM CDT (10/10)
Length of Visible Light 12h 09m
Length of Day
11h 07m
Waning Crescent, 27% of the Moon is Illuminated
Oct 10
Waning Crescent
Oct 15
New
Oct 21
First Quarter
Oct 29
Full
Nov 6
Last Quarter

Hourly Weather History & Observations

Time (CDT) Temp. Windchill Dew Point Humidity Pressure Visibility Wind Dir Wind Speed Gust Speed Precip Events Conditions
12:55 AM 27.5 °F 20.2 °F 24.6 °F 89% 30.02 in 10.0 mi West 6.9 mph - N/A   Overcast
1:55 AM 29.3 °F 23.2 °F 25.2 °F 85% 30.03 in 10.0 mi WNW 5.8 mph - N/A   Mostly Cloudy
2:55 AM 28.0 °F 22.8 °F 24.8 °F 88% 30.02 in 10.0 mi WSW 4.6 mph - N/A   Overcast
3:55 AM 26.6 °F 21.2 °F 23.2 °F 87% 30.02 in 10.0 mi West 4.6 mph - N/A   Partly Cloudy
4:55 AM 28.0 °F 22.8 °F 25.0 °F 88% 30.02 in 10.0 mi WSW 4.6 mph - N/A   Overcast
5:55 AM 26.6 °F 20.0 °F 23.5 °F 88% 30.01 in 10.0 mi West 5.8 mph - N/A   Clear
6:55 AM 25.9 °F 18.2 °F 23.7 °F 92% 30.01 in 10.0 mi WSW 6.9 mph - N/A   Clear
7:55 AM 28.6 °F 22.4 °F 26.1 °F 90% 30.00 in 10.0 mi West 5.8 mph - N/A   Clear
8:55 AM 31.6 °F 27.0 °F 28.2 °F 87% 30.01 in 10.0 mi WSW 4.6 mph - N/A   Clear
9:55 AM 35.8 °F 31.9 °F 31.5 °F 84% 30.01 in 10.0 mi West 4.6 mph - N/A   Clear
11:55 AM 41.5 °F 37.1 °F 31.8 °F 68% 30.01 in 10.0 mi WSW 6.9 mph - N/A   Overcast
12:55 PM 43.9 °F 39.9 °F 31.8 °F 63% 29.99 in 10.0 mi WSW 6.9 mph - N/A   Mostly Cloudy
1:55 PM 44.2 °F 40.3 °F 29.7 °F 57% 29.96 in 10.0 mi SW 6.9 mph - N/A   Overcast
2:41 PM 44.6 °F 42.2 °F 30.2 °F 57% 29.96 in 10.0 mi WSW 4.6 mph - N/A   Overcast
2:55 PM 44.4 °F - 29.5 °F 56% 29.96 in 10.0 mi Calm Calm - 0.00 in Rain Light Rain
3:14 PM 44.6 °F 43.1 °F 30.2 °F 57% 29.94 in 10.0 mi South 3.5 mph - N/A   Overcast
3:55 PM 44.4 °F 42.9 °F 30.0 °F 57% 29.94 in 10.0 mi SSE 3.5 mph - 0.00 in   Overcast
4:13 PM 42.8 °F 37.5 °F 33.8 °F 70% 29.94 in 10.0 mi WNW 9.2 mph 21.9 mph N/A   Light Drizzle
4:55 PM 41.0 °F 36.4 °F 36.1 °F 83% 29.94 in 10.0 mi WNW 6.9 mph - 0.00 in Rain Light Rain
5:05 PM 41.0 °F 37.1 °F 37.4 °F 87% 29.94 in 7.0 mi WNW 5.8 mph - N/A Rain Light Rain
5:18 PM 39.2 °F 35.0 °F 37.4 °F 93% 29.94 in 6.0 mi WNW 5.8 mph - N/A Rain Light Rain
5:41 PM 39.2 °F 37.0 °F 37.4 °F 93% 29.94 in 10.0 mi NW 3.5 mph - N/A Rain Light Rain
5:45 PM 39.2 °F 37.0 °F 37.4 °F 93% 29.94 in 10.0 mi NW 3.5 mph - N/A Rain Light Rain
5:48 PM 39.2 °F 35.9 °F 37.4 °F 93% 29.94 in 10.0 mi NW 4.6 mph - N/A Rain Light Rain
5:53 PM 39.2 °F 35.9 °F 35.6 °F 87% 29.94 in 9.0 mi NW 4.6 mph - N/A Rain Light Rain
5:55 PM 39.0 °F 35.7 °F 36.5 °F 91% 29.94 in 9.0 mi NW 4.6 mph - 0.03 in Rain Light Rain
6:03 PM 39.2 °F - 35.6 °F 87% 29.94 in 10.0 mi Calm Calm - N/A Rain Light Rain
6:12 PM 39.2 °F - 35.6 °F 87% 29.94 in 10.0 mi Calm Calm - N/A Rain Light Rain
6:22 PM 39.2 °F - 37.4 °F 93% 29.94 in 9.0 mi Calm Calm - N/A Rain Light Rain
6:40 PM 39.2 °F - 37.4 °F 93% 29.94 in 9.0 mi Calm Calm - N/A Rain Light Rain
6:50 PM 39.2 °F - 37.4 °F 93% 29.94 in 10.0 mi Calm Calm - N/A Rain Light Rain
6:55 PM 38.3 °F 35.9 °F 36.7 °F 94% 29.94 in 10.0 mi North 3.5 mph - 0.02 in Rain Light Rain
7:05 PM 37.4 °F - 35.6 °F 93% 29.94 in 10.0 mi Calm Calm - N/A Rain Light Rain
7:29 PM 37.4 °F - 35.6 °F 93% 29.94 in 10.0 mi Calm Calm - N/A Rain Light Rain
7:31 PM 37.4 °F 34.9 °F 35.6 °F 93% 29.94 in 10.0 mi NE 3.5 mph - N/A Rain Light Rain
7:35 PM 37.4 °F - 35.6 °F 93% 29.95 in 10.0 mi Calm Calm - N/A Rain Light Rain
7:39 PM 37.4 °F 32.8 °F 35.6 °F 93% 29.95 in 10.0 mi East 5.8 mph - N/A Rain Light Rain
7:49 PM 37.4 °F 33.8 °F 35.6 °F 93% 29.95 in 10.0 mi NE 4.6 mph - N/A Rain Light Rain
7:55 PM 37.6 °F 33.1 °F 35.6 °F 93% 29.95 in 10.0 mi NE 5.8 mph - 0.01 in Rain Light Rain
7:58 PM 37.4 °F 32.8 °F 35.6 °F 93% 29.96 in 10.0 mi NE 5.8 mph - N/A   Light Drizzle
8:03 PM 37.4 °F 32.8 °F 35.6 °F 93% 29.96 in 10.0 mi NE 5.8 mph - N/A   Light Drizzle
8:06 PM 37.4 °F 32.8 °F 35.6 °F 93% 29.96 in 10.0 mi NE 5.8 mph - N/A   Light Drizzle
8:07 PM 37.4 °F 33.8 °F 35.6 °F 93% 29.96 in 10.0 mi NE 4.6 mph - N/A   Light Drizzle
8:13 PM 37.4 °F 33.8 °F 35.6 °F 93% 29.96 in 10.0 mi NE 4.6 mph - N/A   Light Drizzle
8:23 PM 37.4 °F 34.9 °F 35.6 °F 93% 29.96 in 10.0 mi NE 3.5 mph - N/A   Light Drizzle
8:46 PM 37.4 °F 34.9 °F 35.6 °F 93% 29.96 in 10.0 mi NE 3.5 mph - N/A   Overcast
8:48 PM 37.4 °F 34.9 °F 35.6 °F 93% 29.96 in 10.0 mi NE 3.5 mph - N/A   Overcast
8:55 PM 37.4 °F - 35.6 °F 93% 29.96 in 10.0 mi Calm Calm - 0.01 in   Overcast
9:55 PM 37.0 °F - 35.8 °F 95% 29.97 in 10.0 mi Calm Calm - N/A   Overcast
10:01 PM 37.4 °F - 35.6 °F 93% 29.97 in 10.0 mi Calm Calm - N/A   Overcast
10:55 PM 34.7 °F 31.8 °F 33.4 °F 95% 29.99 in 10.0 mi NW 3.5 mph - N/A   Mostly Cloudy
11:55 PM 34.2 °F 29.0 °F 33.1 °F 96% 30.00 in 10.0 mi WNW 5.8 mph - N/A   Partly Cloudy